EW7643 Weather Reports


Display with metric or nautical units.
time (UTC)temp
F
wind
direction
speed
MPH
gust
MPH
rain 1hr
in
rain 24hr
in
rain mn
in
humidity
%
barometer
mb
20260507180029 71 95 0.0 2.0 0.01 0.01 0.01 76 1015.6
20260507174518 70 255 1.0 4.0 0.01 0.01 0.01 77 1015.7
20260507173035 69 330 0.0 5.0 0.01 0.01 0.01 78 1016.0
20260507171538 68 67 0.0 4.0 0.00 0.00 0.00 79 1016.1
20260507170012 68 186 0.0 0.0 0.00 0.00 0.00 79 1016.1
20260507164514 67 236 0.0 0.0 0.00 0.00 0.00 79 1015.9
20260507163019 66 25 0.0 5.0 0.00 0.00 0.00 80 1016.0
20260507161527 65 217 0.0 0.0 0.00 0.00 0.00 81 1016.0
20260507160024 65 57 0.0 0.0 0.00 0.00 0.00 82 1015.8
20260507154509 64 15 0.0 0.0 0.00 0.00 0.00 82 1016.2
20260507153014 64 330 0.0 0.0 0.00 0.00 0.00 82 1016.1
20260507151522 65 214 0.0 3.0 0.00 0.00 0.00 82 1015.9
20260507150024 65 13 0.0 3.0 0.00 0.00 0.00 82 1015.8
20260507144531 65 311 1.0 5.0 0.00 0.00 0.00 82 1015.7
20260507143019 66 319 0.0 7.0 0.00 0.00 0.00 82 1015.5
20260507141523 66 194 0.0 9.0 0.00 0.00 0.00 82 1015.5
20260507140023 65 15 0.0 3.0 0.00 0.00 0.00 82 1015.1
20260507134528 65 358 0.0 3.0 0.00 0.00 0.00 82 1015.8
20260507133029 64 9 0.0 7.0 0.00 0.00 0.00 82 1015.7
20260507131531 0 0.0 0.0 0.00 0.00 0.00 1015.6
20260507130027 0 0.0 0.0 0.00 0.00 0.00 1015.4
20260507124529 0 0.0 0.0 0.00 0.00 0.00 1015.0
20260507123033 0 0.0 0.0 0.00 0.00 0.00 1014.6
20260507121528 0 0.0 0.0 0.00 0.00 0.00 1014.3
20260507120039 0 0.0 0.0 0.00 0.00 0.00 1014.2
20260507114527 0 0.0 0.0 0.00 0.00 0.00 1014.1
20260507113039 0 0.0 0.0 0.00 0.00 0.00 1013.7
20260507111530 0 0.0 0.0 0.00 0.00 0.00 1013.5
20260507110031 0 0.0 0.0 0.00 0.00 0.00 1013.7
20260507104528 0 0.0 0.0 0.00 0.00 0.00 1013.4
20260507103030 0 0.0 0.0 0.00 0.00 0.00 1013.5
20260507101528 0 0.0 0.0 0.00 0.00 0.00 1013.2
20260507100035 0 0.0 0.0 0.00 0.00 0.00 1013.0
20260507094527 0 0.0 0.0 0.00 0.00 0.00 1012.9
20260507093027 68 352 2.0 5.0 0.00 0.00 0.00 81 1012.9
20260507091526 69 305 0.0 0.0 0.00 0.00 0.00 82 1012.9
20260507090026 70 98 0.0 3.0 0.00 0.00 0.00 82 1012.8
20260507084531 70 276 0.0 3.0 0.00 0.00 0.00 82 1012.5
20260507083019 70 7 0.0 0.0 0.00 0.00 0.00 82 1012.3
20260507081532 70 75 0.0 0.0 0.00 0.00 0.00 82 1012.5
20260507080007 70 285 0.0 2.0 0.00 0.00 0.00 82 1012.6
20260507074525 70 76 0.0 0.0 0.00 0.00 0.00 81 1012.8
20260507073020 71 42 0.0 0.0 0.00 0.00 0.00 81 1012.7
20260507071528 71 302 0.0 6.0 0.00 0.00 0.00 81 1012.8
20260507070011 71 302 0.0 0.0 0.00 0.00 0.00 81 1013.0
20260507064510 72 246 0.0 0.0 0.00 0.00 0.00 81 1012.8
20260507063017 72 267 0.0 0.0 0.00 0.00 0.00 81 1012.8
20260507061530 72 269 0.0 0.0 0.00 0.00 0.00 81 1012.8
20260507060024 72 252 0.0 0.0 0.00 0.00 0.00 81 1012.3
20260507054510 73 13 0.0 0.0 0.00 0.00 0.00 81 1012.3
20260507053012 73 259 0.0 6.0 0.00 0.00 0.00 81 1012.4
20260507051518 73 290 0.0 0.0 0.00 0.00 0.00 81 1012.3
20260507050021 74 352 0.0 0.0 0.00 0.00 0.00 81 1012.5
20260507044527 74 21 0.0 3.0 0.00 0.00 0.00 81 1012.4
20260507043012 75 15 0.0 5.0 0.00 0.00 0.00 80 1012.6
20260507041515 75 232 2.0 5.0 0.00 0.00 0.00 80 1012.4
20260507040020 77 284 0.0 0.0 0.00 0.00 0.00 71 1012.0
20260507034532 77 117 0.0 0.0 0.00 0.00 0.00 70 1011.7
20260507033026 77 117 0.0 0.0 0.00 0.00 0.00 70 1011.6
20260507031508 77 117 0.0 0.0 0.00 0.00 0.00 71 1011.3
20260507030014 77 117 0.0 0.0 0.00 0.00 0.00 71 1011.0
20260507024517 77 117 0.0 0.0 0.00 0.00 0.00 72 1010.7
20260507023024 77 117 0.0 0.0 0.00 0.00 0.00 73 1010.7
20260507021526 78 117 0.0 0.0 0.00 0.00 0.00 74 1010.5
20260507020010 78 117 0.0 0.0 0.00 0.00 0.00 75 1010.3
20260507014520 78 117 0.0 0.0 0.00 0.00 0.00 77 1009.8
20260507013020 79 141 0.0 0.0 0.00 0.00 0.00 78 1009.9
20260507011527 79 113 0.0 0.0 0.00 0.00 0.00 79 1009.5
20260507010032 79 115 0.0 2.0 0.00 0.00 0.00 79 1009.3
20260507004516 80 140 0.0 0.0 0.00 0.00 0.00 80 1009.4
20260507003018 80 245 0.0 0.0 0.00 0.00 0.00 80 1009.1
20260507001529 80 119 0.0 0.0 0.00 0.00 0.00 80 1008.9
20260507000029 81 108 0.0 0.0 0.00 0.00 0.00 80 1009.0
20260506234544 81 243 0.0 0.0 0.00 0.00 0.00 80 1008.9
20260506233015 82 112 0.0 0.0 0.00 0.00 0.00 80 1008.9
20260506231521 82 108 0.0 0.0 0.00 0.00 0.00 80 1008.9
20260506230024 82 113 0.0 0.0 0.00 0.00 0.00 79 1008.7
20260506224530 82 129 0.0 0.0 0.00 0.00 0.00 79 1008.4
20260506223026 83 122 0.0 0.0 0.00 0.00 0.00 79 1008.6
20260506221516 83 125 0.0 6.0 0.00 0.00 0.00 79 1008.7
20260506220033 83 120 0.0 3.0 0.00 0.00 0.00 79 1008.7
20260506214527 85 126 0.0 4.0 0.00 0.00 0.00 76 1008.6
20260506213026 86 84 0.0 3.0 0.00 0.00 0.00 75 1008.7
20260506211526 86 115 0.0 0.0 0.00 0.00 0.00 75 1008.7
20260506210018 85 115 0.0 0.0 0.00 0.00 0.00 76 1008.6
20260506204524 85 113 0.0 4.0 0.00 0.00 0.00 76 1008.8
20260506203026 84 14 0.0 1.0 0.00 0.00 0.00 77 1009.0
20260506201528 83 123 0.0 0.0 0.00 0.00 0.00 79 1009.2
20260506200029 83 114 0.0 4.0 0.00 0.00 0.00 79 1009.4
20260506194531 83 111 0.0 0.0 0.00 0.00 0.00 79 1009.4
20260506193005 83 112 0.0 0.0 0.00 0.00 0.00 78 1009.5
20260506191507 84 105 0.0 0.0 0.00 0.00 0.00 78 1009.6
20260506190014 84 114 0.0 0.0 0.00 0.00 0.00 78 1009.9
20260506184524 83 113 0.0 0.0 0.00 0.00 0.00 79 1010.2
20260506183023 83 117 0.0 0.0 0.00 0.00 0.00 79 1010.2
20260506181506 83 117 0.0 0.0 0.00 0.00 0.00 78 1010.4